Weather History for Point Mugu, CA

Change the Weather History Date:

Sunday, January 15, 2012

  Actual Average Record
Temperature  
Mean Temperature 54 °F -  
Max Temperature 63 °F 61 °F 89 °F (2014)
Min Temperature 45 °F 45 °F 37 °F (2013)
Degree Days  
Heating Degree Days 11    
Growing Degree Days 4 (Base 50)    
Moisture  
Dew Point 42 °F    
Average Humidity 67    
Maximum Humidity 89    
Minimum Humidity 41    
Precipitation  
Precipitation 0.00 in - - ()
Sea Level Pressure  
Sea Level Pressure 30.10 in    
Wind  
Wind Speed 7 mph (South)    
Max Wind Speed 16 mph    
Max Gust Speed 26 mph    
Visibility 7 miles    
Events      
Averages and records for this station are not official NWS values.
T = Trace of Precipitation, MM = Missing Value Source: NWS Daily Summary

Daily Weather History Graph

Daily Weather History Graph

Search for Another Location

Airport:

Trip Planner

Search our weather history database for the weather conditions in past years. The results will help you decide how hot, cold, wet, or windy it might be!

Date:

Astronomy

Jan. 15, 2012 Rise Set
Actual Time 7:02 AM PST 5:09 PM PST
Civil Twilight 6:34 AM PST 5:37 PM PST
Nautical Twilight 6:04 AM PST 6:07 PM PST
Astronomical Twilight 5:34 AM PST 6:37 PM PST
Moon No Moon Rise 10:44 AM PST (1/15)
Length of Visible Light 11h 02m
Length of Day
10h 07m
Waning Gibbous, 56% of the Moon is Illuminated
Jan 15
Waning Gibbous
Jan 16
Last Quarter
Jan 22
New
Jan 30
First Quarter
Feb 7
Full

Hourly Weather History & Observations

Time (PST) Temp. Windchill Dew Point Humidity Pressure Visibility Wind Dir Wind Speed Gust Speed Precip Events Conditions
12:54 AM 45.0 °F 41.2 °F 30.0 °F 56% 30.12 in - NNE 6.9 mph - N/A   Partly Cloudy
1:54 AM 45.0 °F 42.6 °F 30.0 °F 56% 30.11 in - NNE 4.6 mph - N/A   Overcast
2:54 AM 45.0 °F 41.2 °F 28.9 °F 53% 30.10 in - NNE 6.9 mph - N/A   Partly Cloudy
3:54 AM 46.0 °F 43.1 °F 28.0 °F 50% 30.09 in - North 5.8 mph - N/A   Mostly Cloudy
4:54 AM 46.9 °F - 27.0 °F 46% 30.11 in - NNW 5.8 mph - N/A   Clear
5:54 AM 45.0 °F 43.5 °F 30.9 °F 58% 30.11 in 7.0 mi NNE 3.5 mph - N/A   Mostly Cloudy
6:54 AM 46.0 °F - 28.9 °F 51% 30.11 in 7.0 mi Calm Calm - N/A   Mostly Cloudy
7:54 AM 48.0 °F - 30.0 °F 50% 30.11 in 7.0 mi NNE 4.6 mph - N/A   Scattered Clouds
8:54 AM 53.1 °F - 30.0 °F 41% 30.14 in 7.0 mi Calm Calm - N/A   Mostly Cloudy
9:54 AM 61.0 °F - 37.0 °F 41% 30.15 in 7.0 mi SE 16.1 mph - N/A   Scattered Clouds
10:54 AM 61.0 °F - 44.1 °F 54% 30.14 in 7.0 mi SSE 12.7 mph - N/A   Mostly Cloudy
11:54 AM 63.0 °F - 46.0 °F 54% 30.11 in 7.0 mi SSE 15.0 mph - N/A   Mostly Cloudy
12:54 PM 60.1 °F - 51.1 °F 72% 30.09 in 7.0 mi SE 13.8 mph - N/A   Mostly Cloudy
1:54 PM 61.0 °F - 48.9 °F 64% 30.07 in 7.0 mi SSE 10.4 mph - N/A   Mostly Cloudy
2:54 PM 60.1 °F - 51.1 °F 72% 30.06 in 7.0 mi SSE 9.2 mph - N/A   Mostly Cloudy
3:54 PM 57.9 °F - 50.0 °F 75% 30.06 in 7.0 mi SSE 11.5 mph 26.5 mph N/A   Overcast
4:54 PM 57.9 °F - 51.1 °F 78% 30.07 in 7.0 mi SSE 10.4 mph - N/A   Overcast
5:16 PM - - - N/A% - - North - - N/A   Unknown
5:54 PM 57.0 °F - 51.1 °F 81% 30.09 in - SSW 10.4 mph - N/A   Overcast
6:54 PM 55.0 °F - 51.1 °F 86% 30.09 in - WSW 4.6 mph - N/A   Overcast
7:54 PM 55.0 °F - 51.1 °F 86% 30.10 in - SSW 4.6 mph - N/A   Overcast
8:54 PM 55.0 °F - 51.1 °F 86% 30.10 in - South 3.5 mph - N/A   Scattered Clouds
9:00 PM - - - N/A% - - North - - N/A   Unknown
9:37 PM 55.4 °F - 51.8 °F 88% 30.10 in - SSW 8.1 mph - N/A   Mostly Cloudy
9:54 PM 55.0 °F - 51.1 °F 86% 30.10 in - SSW 10.4 mph - N/A   Scattered Clouds
10:08 PM 55.4 °F - 51.8 °F 88% 30.10 in - SSW 8.1 mph - N/A   Mostly Cloudy
10:54 PM 55.0 °F - 52.0 °F 89% 30.12 in - SW 6.9 mph - N/A   Overcast
11:54 PM 53.1 °F - 50.0 °F 89% 30.12 in - WSW 4.6 mph - N/A   Mostly Cloudy